Location: Pedholt
(56.0260°N, 10.2097°E)
Time: 04:07:23
(UTC+00:00)

CZ-4C R/B - Pass Details

Date: 14 July 2020
Orbit: 464 x 636 km, 98.0° (Epoch: 14 August)

Event Time Altitude Azimuth Distance (km) Brightness Sun altitude
Exits shadow 01:11:57 11° 184° (S) 1,719 5.3 -9.1°
Maximum altitude 01:15:31 48° 259° (W) 678 3.5 -8.9°
Drops below altitude 10° 01:19:03 10° 335° (NNW) 1,697 6.4 -8.7°
Sets 01:21:08 0° 341° (NNW) 2,563 7.5 -8.5°
